Showing default

COSMOS 2512, 41099

Orbit data source: Space-Track

COSMOS 2512, 41099 is a payload satellite owned by PVO (CIS) in SSO that was launched on Sat, 05 Dec 2015 UTC via a SOYUZ-2-1V launch vehicle from the Plesetsk Missile And Space Complex (PKMTR). Payload-class satellites include a variety of spacecraft equipped with specific instruments for various scientific and technological missions. These include communications satellites like Starlink; space stations such as the ISS; scientific satellites like the Hubble; Earth observation satellites from companies like Planet Labs, Umbra, and HawkEye 360; GPS; miniature CubeSats for education and research; and military/defense satellites.

Loading next visibility...
Identifier
41099, 2015-071B
Orbit
SSO
Country
Flag of CISCIS
Related business
Manufacturer
ALMAN?
Mission
Non-operational Defense Calibration
Bus & Motor
SKRL, Unknown motor
Mass
16 kg wet, 16 kg dry
Launch date (UTC)
2015-12-05 (11 years ago)
Launch vehicle
SOYUZ-2-1V
Launch site
Plesetsk Missile And Space Complex (PKMTR)
Object type
Payload
Rocket body
Debris
Shape & HBR
Sphere, 0.4 m
Radar Cross Section
0.503 m², Medium (>0.1 m² and < 1m²)

Expand to show TLE details & history
Last TLE update: 2 days ago

TLE from 2 days ago
0 COSMOS 2512
1 41099U 15071B   26171.38857113  .00001856  00000-0  27824-3 0  9996
2 41099  98.0639 193.8546 0005914  23.0161 337.1312 14.75804067563622
Epoch: 2026-06-20T09:19Z
TLE epoch observation values (Epoch: 2026-06-20T09:19:32.545Z)
Latitude
-0.00004°
Longitude
145.3651°
Altitude
641.785 km
Speed
7.539 km/s
True Right ascension
12h 55m 25s
True Declination
0° 00' 00"
Sunlit
Object was in daylight at epoch
Visualization orbit readout
Latitude
Unknown
Longitude
Unknown
Altitude
Unknown
Speed
Unknown
Apparent Right ascension
Unknown
Apparent Declination
Unknown
Sunlit
N/A
Visualization observer readout
Local Sidereal Time
23:21:07
Azimuth
Unknown
Elevation
Unknown
Doppler factor
Unknown
Orbital elements
Apogee altitude
643.804 km
Perigee altitude
635.504 km
Semi-major axis
7,017.791 km
Eccentricity
0.00059
Inclination
98.0639°
RAAN
193.8546°
Arg. of periapsis
23.0161°
True anomaly
337.10485°
Mean anomaly
337.1312°
Eccentric anomaly
337.11802°
Mean motion
3.69184 °/min
Orbital period
97.51 mins
BSTAR
0.00027824
Loading maneuver chart data...
Computing Atmospheric mass density...
Loading historical data...
Loading historical data...
Loading historical data...
Loading historical data...
Loading historical data...
Loading historical data...
Loading historical data...
Other satellites on launch #71 in the year 2015 (2015-12-05 UTC)

Documentation

Showing up to 5 results
|